Temp
37 29 25 28 31 31 29 25 22 29 37 36 35 37 42 47 50 50 51 52 53 52 52 54 56 59 63 63 63 64 65 65 65 65 64 64 63 64 62 62 65 64 64 63
30 26 34 36 34 31 28 20 19 30 36 36 35 36 42 48 49 51 52 52 51 49 50 50 52 53 53 60 63 64 65 64 65 65 66 66 65 64 65 66 64 65 64 65
28 34 39 33 31 28 27 24 23 25 34 38 33 32 37 44 48 51 53 54 50 49 47 47 47 47 52 52 51 59 65 64 66 65 63 62 63 63 63 63 63 65 66 65
30 37 33 30 28 31 24 32 31 29 27 23 36 26 36 42 43 46 46 47 44 45 45 46 45 45 46 48 51 51 51 63 64 65 64 63 63 62 64 63 64 65 66 66
30 32 31 29 31 34 28 36 31 31 29 30 30 28 34 42 39 41 41 41 41 41 41 41 42 43 43 45 47 48 49 50 61 62 63 63 61 62 62 62 63 63 63 64
32 37 36 34 38 38 39 35 33 32 27 23 29 30 31 36 40 39 39 39 39 39 40 41 42 43 42 44 46 47 47 46 51 57 61 62 62 61 60 60 61 61 62 63
30 32 37 40 34 39 34 29 21 20 20 19 33 29 27 33 42 40 36 37 38 39 39 39 40 40 41 41 42 45 45 44 46 48 53 55 57 59 58 57 58 60 58 58
21 23 32 38 36 33 32 30 24 19 20 23 29 23 26 33 37 37 37 36 37 36 37 37 38 39 40 40 41 42 42 42 43 44 45 47 48 50 50 50 51 50 51 51
23 25 35 36 36 39 32 28 34 27 24 21 25 27 32 33 32 33 34 34 33 34 35 36 37 38 39 39 40 41 41 41 41 42 42 42 43 44 45 45 46 46 47 49
30 24 32 33 37 37 33 35 27 29 20 17 24 25 26 30 30 32 31 32 33 34 34 35 36 37 38 38 39 40 41 40 40 41 41 41 40 41 42 43 43 43 44 46
33 29 30 34 31 31 31 30 31 30 28 23 20 23 32 32 33 33 32 34 34 34 34 35 36 37 38 38 38 39 39 39 39 40 40 40 40 40 40 40 40 41 42 43
33 30 26 29 36 37 34 33 33 27 23 25 26 22 32 32 33 35 34 35 36 36 35 35 36 37 37 37 38 38 38 38 38 38 38 38 39 39 38 38 39 40 40 41
33 26 21 26 32 35 30 33 33 33 31 24 22 22 32 33 31 30 33 34 35 34 35 35 36 36 36 37 37 37 38 38 38 38 38 37 37 37 36 37 38 39 39 39
36 29 24 21 25 28 24 29 31 28 22 25 25 26 29 30 30 31 30 32 32 34 34 34 34 34 35 36 36 37 37 37 37 37 36 35 35 36 36 36 36 36 37 37
32 24 28 28 28 29 26 25 28 23 19 22 26 27 29 30 29 31 32 31 31 31 32 33 33 34 35 35 35 36 36 36 37 35 34 33 34 35 35 35 35 35 35 36
31 26 24 21 27 30 24 26 27 27 26 26 27 26 32 33 33 31 32 33 33 34 34 33 33 32 32 33 33 33 33 33 34 33 32 33 33 33 33 33 33 34 35 35
22 19 18 17 21 21 21 23 23 27 28 25 21 27 31 31 32 30 32 33 33 33 34 32 32 32 31 31 32 31 32 32 31 31 31 31 31 31 31 32 32 31 32 33
16 12 10 14 16 11 25 28 27 28 29 30 30 29 30 30 30 31 32 33 32 33 32 32 32 30 30 30 30 30 31 30 30 30 30 31 30 30 31 31 30 30 30 30
26 15 10 10 -2 17 25 27 26 24 25 30 28 29 30 30 31 29 31 31 30 31 31 31 30 29 29 29 29 29 29 29 30 29 29 30 30 30 29 28 28 28 29 28
28 22 16 0 3 5 22 28 28 29 21 30 30 29 29 31 27 26 29 30 30 30 30 29 29 29 29 28 29 29 28 28 28 28 29 29 29 29 28 28 28 28 29 29
7 6 3 -1 -2 10 23 28 29 18 23 30 30 30 30 29 28 29 29 29 30 30 30 29 29 29 29 29 29 28 28 28 28 28 28 28 28 28 28 27 27 27 27 27
10 4 -2 -7 -1 7 24 27 24 28 29 30 29 29 29 28 28 28 28 29 29 28 29 29 28 28 28 29 29 28 27 27 26 25 24 23 23 27 27 25 23 23 24 23
14 14 10 15 15 22 24 25 28 30 31 29 29 28 29 28 23 24 22 21 21 21 24 22 22 23 22 22 24 24 23 22 20 20 19 19 20 23 23 22 22 20 20 19
15 14 14 16 19 19 24 25 28 28 28 28 30 29 28 24 19 20 19 20 19 16 17 12 15 18 18 16 19 19 18 17 16 15 16 15 17 18 18 22 21 20 18 17
16 16 13 14 17 15 17 18 21 23 21 22 19 21 23 25 22 21 20 17 15 14 12 10 13 13 16 12 13 11 15 16 17 16 15 16 16 15 16 18 18 20 19 21
15 18 19 19 26 22 22 15 13 17 19 16 20 20 17 20 22 19 18 15 14 14 13 13 13 12 15 12 15 13 12 16 15 16 15 15 16 15 16 17 18 28 30 31
MSLP
1017.42 1017.74 1016.61 1016.78 1017.36 1017.92 1018.64 1019.13 1018.47 1017.24 1016.09 1015.87 1014.82 1013.98 1012.76 1012.23 1011.89 1011.30 1011.16 1011.45 1011.82 1012.62 1013.34 1012.25 1012.63 1012.01 1012.16 1012.19 1012.93 1013.42 1014.09 1014.53 1015.22 1015.65 1016.12 1016.84 1016.98 1017.47 1018.06 1018.41 1018.64 1018.96 1019.27 1019.54
1017.10 1015.09 1013.94 1016.48 1017.04 1017.49 1018.06 1018.37 1017.97 1017.00 1016.07 1015.57 1014.26 1013.11 1012.33 1011.75 1011.39 1011.03 1011.17 1011.83 1012.21 1013.31 1013.88 1013.54 1013.23 1012.97 1013.17 1012.79 1012.98 1013.29 1013.75 1014.18 1014.57 1015.05 1015.62 1016.27 1016.67 1016.96 1017.21 1017.74 1018.30 1018.59 1018.75 1019.01
1015.17 1012.28 1014.40 1015.40 1015.66 1016.38 1016.65 1017.15 1016.66 1016.47 1015.53 1014.68 1014.05 1012.89 1011.57 1010.91 1011.36 1011.03 1011.28 1011.82 1012.89 1013.48 1014.24 1014.42 1013.47 1013.67 1013.78 1013.89 1013.57 1012.86 1013.23 1013.75 1013.89 1014.45 1015.41 1016.10 1016.74 1017.04 1017.29 1017.66 1018.08 1018.24 1018.33 1018.55
1013.96 1012.59 1013.42 1013.76 1013.97 1014.74 1014.97 1015.01 1015.93 1015.96 1015.81 1014.14 1013.25 1011.65 1010.53 1010.67 1011.15 1011.70 1011.98 1012.84 1013.74 1014.37 1015.08 1015.22 1014.81 1014.55 1014.86 1015.09 1014.55 1014.08 1014.09 1013.76 1013.76 1014.01 1014.63 1015.30 1015.84 1016.26 1016.58 1017.04 1017.65 1017.89 1018.02 1018.17
1012.66 1012.01 1012.25 1012.54 1012.23 1013.49 1013.29 1014.12 1014.80 1015.03 1014.60 1013.49 1012.26 1012.37 1010.20 1010.40 1011.24 1012.08 1012.80 1013.90 1014.60 1015.61 1016.42 1016.10 1015.85 1016.01 1015.79 1015.68 1015.16 1014.59 1014.47 1015.25 1013.69 1013.92 1014.57 1015.17 1015.59 1016.21 1016.21 1016.70 1017.35 1017.65 1017.79 1017.99
1012.14 1011.55 1011.47 1011.08 1011.75 1012.02 1012.85 1013.13 1013.85 1014.19 1013.95 1012.29 1011.32 1011.41 1011.04 1010.74 1010.81 1012.57 1013.77 1014.73 1015.55 1016.06 1017.13 1017.01 1017.06 1016.80 1016.33 1016.16 1015.58 1015.07 1014.93 1016.07 1015.45 1014.05 1014.26 1014.84 1015.34 1016.05 1016.25 1016.87 1017.33 1017.53 1017.79 1018.01
1011.84 1011.09 1010.70 1010.75 1011.12 1011.62 1011.95 1011.48 1012.53 1013.01 1012.28 1011.44 1009.77 1011.67 1012.39 1012.17 1011.70 1012.97 1014.53 1015.66 1016.46 1017.16 1017.54 1017.84 1017.72 1017.59 1017.47 1017.08 1016.75 1016.67 1016.15 1017.57 1016.09 1016.09 1015.51 1014.89 1015.70 1015.99 1016.65 1017.20 1017.51 1017.61 1017.91 1018.35
1012.81 1011.52 1010.73 1010.49 1010.17 1009.95 1010.72 1011.17 1010.38 1010.22 1010.31 1010.43 1010.70 1011.73 1013.45 1013.89 1013.52 1014.54 1015.64 1016.89 1017.49 1017.86 1017.77 1018.61 1018.49 1018.79 1018.10 1017.43 1017.65 1018.22 1017.15 1016.88 1018.24 1017.45 1016.67 1016.53 1016.42 1016.53 1017.37 1017.87 1017.54 1018.37 1018.32 1018.92
1013.33 1011.71 1010.77 1010.17 1010.15 1009.74 1010.23 1010.39 1009.91 1009.83 1009.69 1010.76 1011.74 1013.16 1014.15 1014.59 1014.98 1015.73 1016.81 1017.31 1017.92 1018.27 1018.81 1019.41 1019.48 1019.29 1019.18 1018.34 1019.09 1018.76 1018.13 1018.37 1018.44 1018.14 1018.34 1017.84 1017.61 1017.93 1018.41 1018.16 1018.80 1018.98 1019.17 1019.60
1013.35 1012.21 1010.84 1010.41 1010.12 1009.86 1009.78 1009.79 1009.82 1009.19 1009.61 1010.57 1012.00 1012.95 1014.64 1015.07 1015.80 1016.56 1017.41 1018.22 1018.98 1019.33 1019.18 1020.01 1020.20 1019.88 1020.13 1019.78 1019.85 1019.66 1019.42 1019.69 1019.89 1020.27 1019.36 1020.17 1019.07 1019.58 1019.59 1019.55 1019.75 1019.61 1020.14 1020.12
1013.47 1012.37 1011.25 1010.44 1010.53 1010.25 1009.93 1009.60 1009.54 1009.48 1009.45 1010.25 1012.28 1014.79 1015.91 1015.63 1016.09 1017.30 1018.43 1019.13 1019.62 1019.90 1020.01 1021.11 1021.03 1020.86 1020.79 1020.61 1020.45 1020.70 1020.39 1020.38 1020.06 1020.81 1020.65 1020.24 1020.42 1020.07 1020.10 1020.41 1020.99 1020.92 1020.64 1020.89
1013.74 1012.94 1012.03 1011.40 1010.74 1010.56 1010.29 1009.91 1009.54 1009.64 1010.80 1010.92 1012.24 1016.04 1016.62 1016.91 1017.19 1017.67 1018.79 1019.36 1020.36 1020.88 1020.80 1021.11 1021.42 1021.78 1021.49 1021.73 1021.65 1021.55 1021.39 1021.49 1021.51 1021.38 1021.45 1021.17 1020.88 1020.68 1021.00 1021.97 1022.34 1022.18 1022.20 1021.47
1014.44 1013.84 1013.36 1012.02 1011.37 1010.98 1011.41 1011.14 1010.42 1010.11 1010.94 1012.44 1013.63 1016.74 1017.69 1017.91 1018.12 1018.74 1019.41 1020.02 1020.66 1020.78 1020.83 1021.53 1022.36 1022.38 1022.58 1022.45 1022.26 1022.14 1022.08 1022.28 1022.48 1022.87 1022.40 1022.03 1022.26 1021.88 1022.67 1023.05 1023.31 1023.31 1022.70 1022.19
1015.12 1015.03 1014.57 1014.89 1015.02 1014.47 1013.87 1012.58 1011.47 1011.21 1012.86 1014.09 1015.17 1016.83 1018.15 1018.72 1019.08 1019.70 1020.35 1020.84 1020.99 1021.52 1021.38 1022.73 1023.04 1023.16 1023.43 1023.16 1022.94 1022.80 1023.10 1023.28 1023.26 1023.71 1023.63 1023.10 1023.27 1023.35 1023.81 1024.00 1024.01 1023.80 1023.80 1023.60
1016.56 1016.90 1016.65 1016.55 1016.23 1015.53 1015.29 1015.09 1014.37 1013.85 1015.22 1015.70 1017.21 1017.86 1018.52 1018.96 1019.71 1020.35 1020.98 1021.40 1021.79 1022.12 1022.53 1023.04 1023.31 1023.69 1023.73 1023.76 1023.85 1023.95 1023.89 1023.96 1023.84 1024.08 1024.19 1024.10 1024.24 1024.05 1023.85 1023.99 1024.32 1024.77 1024.89 1024.78
1018.00 1018.52 1018.35 1017.99 1017.55 1016.84 1016.86 1017.13 1016.97 1016.89 1017.54 1017.81 1018.19 1019.02 1019.75 1020.15 1020.60 1020.97 1021.54 1021.87 1022.29 1022.72 1022.98 1023.30 1023.76 1024.14 1024.41 1024.50 1024.54 1024.77 1024.69 1024.64 1024.69 1025.10 1025.12 1025.04 1025.07 1024.96 1024.93 1024.70 1025.13 1025.59 1025.88 1025.81
1020.41 1020.53 1020.75 1020.57 1019.53 1018.52 1019.06 1020.40 1020.12 1019.43 1019.31 1019.06 1019.31 1020.38 1020.46 1020.68 1021.19 1021.78 1022.05 1022.21 1022.50 1022.94 1023.28 1023.64 1024.08 1024.71 1025.17 1025.60 1025.52 1025.57 1025.32 1025.58 1025.39 1025.84 1025.79 1025.94 1025.99 1025.88 1026.00 1025.97 1026.05 1026.50 1026.57 1026.42
1022.05 1022.65 1023.13 1023.41 1021.79 1022.21 1022.55 1021.76 1021.18 1020.83 1020.62 1020.42 1020.69 1021.17 1021.37 1021.83 1022.52 1022.81 1022.94 1022.90 1023.19 1023.57 1024.04 1024.48 1025.11 1025.69 1025.89 1026.12 1026.00 1026.16 1026.12 1026.30 1025.97 1026.24 1026.15 1026.41 1026.49 1026.62 1026.82 1027.11 1027.25 1026.86 1026.83 1026.95
1022.25 1022.90 1025.00 1025.71 1026.21 1025.20 1023.06 1022.39 1022.19 1021.90 1021.91 1021.60 1021.66 1021.87 1022.05 1022.52 1022.81 1023.66 1023.77 1023.74 1023.90 1024.23 1024.78 1025.34 1025.84 1025.94 1026.27 1026.26 1026.37 1026.55 1026.77 1026.75 1026.70 1027.17 1027.08 1027.25 1027.21 1027.18 1027.50 1027.64 1027.41 1027.46 1028.08 1027.77
1023.61 1024.33 1025.82 1027.47 1027.73 1026.53 1024.42 1022.96 1022.63 1022.34 1022.51 1022.19 1022.15 1022.53 1022.86 1023.04 1023.69 1024.60 1024.73 1024.86 1025.02 1025.11 1025.39 1025.72 1025.95 1026.18 1026.46 1026.66 1026.50 1026.84 1027.25 1027.48 1027.64 1027.48 1027.32 1027.57 1027.76 1027.84 1027.80 1027.94 1028.20 1028.19 1028.21 1028.61
1027.48 1027.70 1029.19 1029.67 1029.28 1027.05 1024.73 1023.42 1023.04 1022.97 1023.91 1022.71 1022.72 1023.01 1023.41 1024.10 1024.90 1025.23 1025.46 1025.72 1025.90 1025.94 1026.26 1026.42 1026.60 1026.89 1027.02 1027.22 1027.15 1027.62 1027.89 1027.89 1027.87 1027.90 1027.94 1028.02 1027.91 1028.07 1028.20 1028.34 1028.53 1028.57 1029.00 1029.20
1029.65 1030.08 1031.13 1030.66 1029.51 1027.80 1025.32 1024.35 1024.17 1023.97 1023.57 1023.45 1023.61 1023.84 1024.15 1024.69 1025.54 1026.08 1026.34 1026.68 1026.69 1026.90 1026.97 1027.24 1027.46 1027.61 1027.77 1027.52 1027.57 1027.94 1028.16 1028.14 1028.20 1028.30 1028.46 1028.46 1028.68 1028.64 1028.62 1028.80 1029.09 1029.39 1029.43 1029.71
1029.75 1029.57 1029.87 1029.51 1028.57 1027.15 1026.04 1025.28 1024.94 1024.83 1024.72 1024.67 1024.55 1024.99 1025.18 1025.89 1026.53 1026.83 1026.99 1027.35 1027.75 1027.91 1028.18 1028.04 1028.15 1028.13 1028.23 1028.37 1028.41 1028.55 1028.70 1028.62 1028.63 1028.83 1029.16 1029.08 1029.26 1029.07 1029.11 1029.35 1029.62 1029.86 1029.83 1030.07
1029.33 1029.08 1029.30 1028.77 1027.66 1027.11 1026.25 1025.90 1025.59 1025.31 1025.29 1025.44 1025.51 1025.73 1026.25 1026.94 1027.59 1028.00 1028.23 1027.94 1028.03 1028.08 1028.48 1028.62 1028.69 1029.07 1029.07 1029.17 1029.03 1029.13 1029.16 1029.18 1029.21 1029.72 1029.70 1029.55 1029.66 1029.53 1029.61 1029.77 1029.68 1029.70 1030.07 1030.18
1029.60 1029.09 1028.73 1028.47 1027.31 1027.22 1026.37 1026.45 1026.40 1026.35 1026.46 1026.70 1026.76 1026.97 1027.31 1027.74 1028.16 1028.45 1028.93 1028.93 1029.02 1029.20 1029.11 1028.97 1029.23 1029.46 1029.38 1029.45 1029.41 1029.16 1029.19 1029.15 1029.37 1029.77 1029.99 1029.97 1029.85 1030.00 1030.23 1030.09 1029.95 1029.71 1029.80 1029.86
1029.17 1028.24 1028.14 1027.67 1026.72 1027.08 1027.11 1027.00 1027.36 1027.58 1027.77 1027.94 1027.94 1028.03 1028.11 1028.25 1028.68 1028.81 1029.08 1029.30 1029.60 1029.71 1029.64 1029.77 1029.76 1029.85 1029.74 1029.67 1029.45 1028.97 1029.02 1029.21 1029.54 1029.87 1030.01 1030.07 1030.09 1030.19 1030.14 1030.12 1029.87 1029.15 1028.96 1028.98
Wind_Speed
9 9 19 25 22 10 6 10 9 7 15 9 15 19 21 19 14 12 8 5 1 3 3 7 5 4 13 14 12 15 16 17 13 11 11 10 9 7 6 5 9 10 8 9
5 22 26 15 14 19 13 7 11 12 11 11 13 15 12 17 16 15 12 7 7 4 2 4 5 8 9 7 14 17 17 15 13 10 9 8 8 6 8 7 7 9 9 10
17 25 14 21 17 21 21 19 17 13 3 16 4 11 11 13 11 9 11 8 7 6 1 3 7 9 5 6 8 6 16 15 14 14 8 5 4 3 4 5 5 8 10 10
14 19 17 15 25 18 20 25 18 15 7 11 15 5 10 17 14 13 8 9 9 7 5 3 4 9 6 5 7 7 14 9 11 13 12 14 10 8 6 6 6 7 9 9
7 6 15 16 21 22 15 16 22 18 17 15 15 5 4 14 17 8 9 9 8 10 3 4 8 7 7 7 5 7 13 17 7 7 7 8 6 2 2 3 8 6 5 5
13 5 12 9 14 20 13 10 17 11 9 9 14 10 7 13 11 11 8 10 9 12 4 5 6 6 9 8 8 8 13 12 15 4 9 11 12 7 5 3 5 4 4 5
6 3 2 7 12 15 16 8 7 8 5 6 8 14 3 9 6 14 13 9 8 9 7 6 7 8 8 10 11 7 12 7 14 11 4 7 5 7 8 5 3 4 3 2
3 3 2 7 6 4 13 9 3 6 7 4 4 4 3 6 15 15 14 12 9 9 10 8 8 6 8 11 12 8 11 13 11 10 12 9 10 5 5 6 6 3 4 4
4 4 2 3 2 2 7 8 0 2 3 5 4 5 2 7 12 14 12 11 10 9 10 8 8 9 7 12 10 9 11 12 10 13 9 12 11 11 8 7 6 5 5 5
5 6 3 3 4 6 2 5 3 4 4 5 5 8 4 4 10 9 10 10 8 8 11 9 7 9 8 9 7 8 9 10 10 8 9 5 8 10 9 6 8 9 7 5
5 3 6 0 6 2 3 2 2 2 4 4 5 6 7 3 9 10 8 10 7 7 11 6 6 7 7 7 9 6 8 9 10 8 6 10 7 9 10 10 8 6 8 7
3 4 3 3 3 1 3 5 3 1 3 5 4 4 8 8 7 9 9 10 7 7 7 7 7 6 7 6 6 7 8 8 7 8 7 8 9 10 11 8 8 7 4 8
7 4 3 7 4 3 7 8 5 6 4 7 4 4 5 7 10 8 9 8 5 7 8 7 4 5 5 5 6 7 7 7 7 5 6 8 8 10 9 8 7 5 7 9
2 6 4 6 4 5 7 19 10 5 5 8 9 8 6 7 9 8 7 7 6 6 7 4 4 5 4 5 6 6 6 5 6 6 6 7 7 8 7 7 6 7 7 7
5 8 9 9 6 9 17 19 21 13 2 7 8 11 7 6 7 5 5 5 6 6 5 3 4 4 4 5 5 5 6 5 6 6 7 7 5 6 7 8 8 7 7 7
9 3 5 6 11 15 18 23 19 14 11 12 11 11 4 7 6 7 6 5 5 5 5 5 5 4 5 5 5 4 5 5 6 6 6 5 7 7 7 8 7 6 6 7
6 3 6 5 9 6 12 14 14 5 8 2 7 3 2 8 10 7 6 5 6 5 5 5 5 5 4 4 4 4 4 3 6 5 5 5 5 6 6 6 7 5 6 7
1 4 2 2 7 10 5 8 6 8 12 11 10 6 7 7 5 7 7 6 7 6 5 6 4 4 4 2 5 4 5 4 6 5 5 5 5 6 5 6 5 6 6 7
4 4 5 6 3 2 4 7 5 6 6 6 5 5 5 4 3 7 7 7 5 5 4 4 4 3 4 5 4 5 5 4 5 4 5 4 4 5 5 5 6 5 5 6
5 8 6 5 8 3 3 5 3 3 4 6 4 4 4 5 5 3 3 4 6 6 4 5 5 3 5 3 4 5 4 3 4 4 4 4 4 5 5 5 5 3 3 5
8 7 6 4 4 7 6 6 3 7 4 3 1 3 3 3 1 3 3 5 3 4 5 4 4 3 3 3 4 4 3 3 2 3 4 4 4 5 4 4 2 4 4 4
2 3 0 3 7 4 3 5 3 2 3 2 2 2 4 6 4 3 5 5 5 5 5 4 4 4 2 2 3 3 2 2 3 3 3 4 3 3 3 4 2 2 3 4
4 5 4 6 7 4 4 1 1 4 3 1 4 4 5 6 1 3 2 4 2 2 3 3 3 3 3 4 3 2 2 2 3 3 3 3 3 3 3 3 3 2 3 3
3 2 0 5 4 4 1 3 1 3 3 3 5 5 5 5 4 1 1 3 4 4 4 2 3 3 3 3 3 1 1 3 4 3 1 2 2 3 3 1 2 2 2 2
4 2 2 4 6 5 4 5 2 3 3 3 3 2 4 6 3 3 2 2 3 2 3 2 2 3 5 3 3 2 1 4 2 1 1 1 2 2 1 1 2 2 2 3
5 7 4 6 3 5 5 3 1 2 1 1 3 2 2 2 5 3 1 1 1 2 1 1 2 2 5 5 6 4 2 4 4 2 1 2 1 2 2 1 3 5 7 6
Wind_Direction
187 202 213 214 211 218 198 226 256 237 232 242 236 238 238 253 260 209 203 209 16 69 350 39 3 56 169 165 182 175 179 180 178 180 176 181 181 175 175 178 185 183 182 183
210 226 218 210 216 215 219 205 238 265 269 226 249 260 247 236 248 213 204 207 142 118 303 24 37 58 52 168 178 184 186 181 179 178 179 184 185 182 178 185 187 191 183 189
216 237 207 200 213 212 212 213 221 223 304 225 189 267 239 257 239 209 204 187 114 128 116 16 48 42 49 50 58 223 183 185 180 167 150 128 137 144 161 182 191 199 192 192
241 257 224 207 213 193 216 210 222 228 237 243 175 256 212 211 186 193 151 141 122 70 59 23 64 56 43 14 329 33 24 221 183 165 164 163 181 177 193 175 191 197 200 195
247 227 192 205 211 201 236 193 207 209 227 235 191 234 170 173 181 166 129 111 104 90 44 40 39 50 41 34 14 52 45 347 172 168 159 161 163 150 133 149 177 178 171 173
265 291 187 199 195 196 192 198 195 217 253 225 211 213 164 176 176 142 130 121 111 99 67 48 44 43 44 25 35 53 60 16 330 64 177 185 191 171 140 147 187 176 181 190
311 175 191 234 187 201 199 171 171 195 173 240 197 194 15 334 196 142 130 102 93 96 75 41 36 42 39 46 35 34 62 51 4 1 51 113 114 143 134 123 118 143 111 53
318 333 217 169 232 194 190 221 234 194 171 136 336 80 34 35 76 88 97 110 100 96 82 42 41 39 54 46 36 31 60 51 23 10 13 39 53 48 80 105 97 56 92 74
305 285 252 316 307 190 145 204 146 239 24 98 115 98 129 89 79 88 89 86 77 72 72 57 46 35 39 51 41 26 56 47 36 38 6 25 39 43 46 74 85 87 56 74
285 293 351 351 277 69 265 130 186 215 131 86 83 66 24 88 106 99 95 89 87 90 71 49 30 35 34 51 40 35 50 67 51 63 47 35 63 48 35 55 62 67 69 56
290 272 312 224 21 4 338 3 9 119 15 121 122 74 340 64 119 124 119 121 112 81 92 82 47 34 31 42 56 39 52 47 55 32 48 44 54 68 56 42 30 58 67 51
303 320 26 342 263 324 332 320 259 71 83 40 68 71 8 51 81 111 120 110 109 108 99 84 57 48 39 32 46 54 56 57 50 47 40 46 31 59 60 53 22 30 50 75
334 14 15 338 18 26 33 341 329 82 64 38 87 105 53 56 66 65 96 98 97 87 79 69 61 52 34 38 37 39 39 48 48 38 56 64 52 56 51 51 36 27 45 57
15 12 77 72 32 327 26 16 17 82 74 80 58 106 74 70 82 77 68 77 76 78 82 97 86 73 68 49 40 49 47 45 50 47 45 64 61 66 69 65 48 41 39 63
55 35 50 62 32 50 55 31 38 55 9 74 98 80 58 56 72 81 98 96 85 91 87 77 80 80 65 75 60 55 54 41 54 61 55 52 66 91 84 70 58 40 40 49
345 33 344 23 4 40 51 24 21 36 44 68 85 69 29 81 90 82 94 99 98 102 96 83 71 66 65 54 59 54 61 55 60 67 66 61 57 52 60 74 69 58 57 59
13 37 15 334 346 16 34 1 359 14 12 130 73 92 82 59 51 38 52 74 87 86 92 88 79 79 78 62 73 59 64 66 79 77 62 66 69 71 64 70 79 73 67 70
298 81 35 290 354 44 317 310 258 35 35 49 71 56 59 83 78 44 25 71 69 75 89 96 105 103 90 85 82 87 74 58 67 59 72 68 75 77 73 81 81 81 79 76
3 100 63 88 46 309 341 356 9 20 5 14 75 64 65 92 89 40 25 34 48 58 72 100 119 113 104 93 91 91 79 85 91 97 93 87 85 85 85 83 83 78 78 79
11 51 92 37 86 110 259 313 357 302 15 359 101 115 128 343 53 312 23 50 61 66 71 86 83 80 99 84 92 86 74 86 96 103 95 99 105 102 100 105 96 84 89 107
340 3 81 42 91 298 272 302 343 64 243 6 52 129 142 57 79 121 77 57 63 78 87 90 90 98 116 126 113 109 127 101 110 100 97 92 92 102 106 98 89 104 99 87
139 87 76 51 59 343 344 332 123 244 337 23 76 59 83 103 100 90 91 78 68 65 67 68 95 97 95 82 77 87 55 101 98 79 69 61 58 79 84 100 66 70 106 112
22 161 187 153 202 236 261 43 211 192 140 66 102 95 109 106 31 23 20 22 24 55 4 16 45 33 12 24 60 98 279 124 86 80 64 47 34 54 72 100 107 88 83 89
299 167 126 53 288 238 252 307 313 26 89 65 91 124 137 137 168 147 6 342 346 351 353 5 32 7 326 356 1 216 264 158 130 129 131 37 38 24 19 43 120 119 133 113
204 84 193 273 286 316 286 228 266 344 31 75 64 99 137 131 179 163 179 229 251 276 325 9 348 319 293 318 285 272 256 145 128 142 223 212 152 164 284 279 217 203 217 176
183 188 144 224 220 152 250 293 343 107 184 344 100 60 33 114 147 145 144 198 185 230 260 287 277 284 292 305 302 302 247 172 164 205 229 232 233 267 219 226 303 257 245 243